Clinton, OK

12:22 PM CDT on July 24, 2016 (GMT -0500)
Clinton Municipal

Weather History for KCLK - February, 2014

Change the Weather History Date:

Wednesday, February 19, 2014

  Actual Average (KCSM) Record (KCSM)
Temperature  
Mean Temperature 54 °F -  
Max Temperature 64 °F 52 °F 78 °F (2007)
Min Temperature 44 °F 32 °F 15 °F (2006)
Degree Days  
Heating Degree Days 11    
Growing Degree Days 4 (Base 50)    
Moisture  
Dew Point 34 °F    
Average Humidity 49    
Maximum Humidity 94    
Minimum Humidity 23    
Precipitation  
Precipitation 0.00 in - - ()
Sea Level Pressure  
Sea Level Pressure 29.77 in    
Wind  
Wind Speed 14 mph (ESE)    
Max Wind Speed 22 mph    
Max Gust Speed 28 mph    
Visibility 9 miles    
Events      
Averages and records for this station are not official NWS values.
T = Trace of Precipitation, MM = Missing Value Source: NWS Daily Summary

Daily Weather History Graph

Daily Weather History Graph

Search for Another Location

Airport or City:

Trip Planner

Search our weather history database for the weather conditions in past years. The results will help you decide how hot, cold, wet, or windy it might be!

Date:

Astronomy

Feb. 19, 2014 Rise Set
Actual Time 7:17 AM CST 6:21 PM CST
Civil Twilight 6:51 AM CST 6:47 PM CST
Nautical Twilight 6:22 AM CST 7:17 PM CST
Astronomical Twilight 5:52 AM CST 7:46 PM CST
Moon 11:04 PM CST (2/19) 9:35 AM CST (2/19)
Length of Visible Light 11h 55m
Length of Day
11h 03m
Waning Gibbous, 79% of the Moon is Illuminated
Feb 19
Waning Gibbous
Feb 22
Last Quarter
Mar 1
New
Mar 8
First Quarter
Mar 16
Full

Hourly Weather History & Observations

Time (CST) Temp. Windchill Dew Point Humidity Pressure Visibility Wind Dir Wind Speed Gust Speed Precip Events Conditions
12:15 AM 51.8 °F - 19.4 °F 28% 29.99 in 10.0 mi NNE 17.3 mph - N/A   Scattered Clouds
12:35 AM 51.8 °F - 19.4 °F 28% 29.98 in 10.0 mi NNE 18.4 mph - N/A   Scattered Clouds
12:55 AM 51.8 °F - 19.4 °F 28% 29.97 in 10.0 mi NE 19.6 mph 26.5 mph N/A   Scattered Clouds
1:15 AM 50.0 °F - 19.4 °F 30% 29.96 in 10.0 mi NE 18.4 mph 24.2 mph N/A   Scattered Clouds
1:35 AM 50.0 °F - 19.4 °F 30% 29.96 in 10.0 mi NE 19.6 mph 24.2 mph N/A   Scattered Clouds
1:55 AM 50.0 °F - 21.2 °F 32% 29.96 in 10.0 mi NE 18.4 mph 23.0 mph N/A   Scattered Clouds
2:15 AM 50.0 °F - 21.2 °F 32% 29.96 in 10.0 mi NE 18.4 mph - N/A   Clear
2:35 AM 50.0 °F - 21.2 °F 32% 29.95 in 10.0 mi NE 18.4 mph 21.9 mph N/A   Scattered Clouds
2:55 AM 50.0 °F - 21.2 °F 32% 29.94 in 10.0 mi NE 21.9 mph 27.6 mph N/A   Mostly Cloudy
3:15 AM 50.0 °F - 21.2 °F 32% 29.94 in 10.0 mi NE 17.3 mph 20.7 mph N/A   Mostly Cloudy
3:35 AM 48.2 °F - 23.0 °F 37% 29.94 in 10.0 mi NE 15.0 mph - N/A   Scattered Clouds
3:55 AM 48.2 °F - 23.0 °F 37% 29.94 in 10.0 mi NE 17.3 mph 21.9 mph N/A   Clear
4:15 AM 48.2 °F - 23.0 °F 37% 29.94 in 10.0 mi ENE 13.8 mph - N/A   Clear
4:35 AM 48.2 °F - 23.0 °F 37% 29.93 in 10.0 mi ENE 16.1 mph - N/A   Clear
4:55 AM 46.4 °F 40.7 °F 23.0 °F 40% 29.94 in 10.0 mi ENE 12.7 mph - N/A   Mostly Cloudy
5:15 AM 46.4 °F 41.1 °F 23.0 °F 40% 29.94 in 10.0 mi ENE 11.5 mph 17.3 mph N/A   Scattered Clouds
5:35 AM 46.4 °F 39.8 °F 23.0 °F 40% 29.93 in 10.0 mi East 16.1 mph - N/A   Scattered Clouds
5:55 AM 46.4 °F 39.5 °F 23.0 °F 40% 29.91 in 10.0 mi ENE 17.3 mph 24.2 mph N/A   Scattered Clouds
6:15 AM 46.4 °F 39.8 °F 24.8 °F 43% 29.91 in 10.0 mi ENE 16.1 mph 25.3 mph N/A   Scattered Clouds
6:35 AM 46.4 °F 40.1 °F 24.8 °F 43% 29.91 in 10.0 mi ENE 15.0 mph - N/A   Clear
6:55 AM 46.4 °F 40.1 °F 24.8 °F 43% 29.90 in 10.0 mi ENE 15.0 mph 20.7 mph N/A   Scattered Clouds
7:15 AM 46.4 °F 41.9 °F 23.0 °F 40% 29.91 in 10.0 mi ENE 9.2 mph 19.6 mph N/A   Clear
7:35 AM 44.6 °F 40.7 °F 24.8 °F 46% 29.91 in 10.0 mi East 6.9 mph - N/A   Scattered Clouds
7:55 AM 46.4 °F 42.9 °F 24.8 °F 43% 29.91 in 10.0 mi East 6.9 mph - N/A   Scattered Clouds
8:15 AM 46.4 °F 43.5 °F 24.8 °F 43% 29.91 in 10.0 mi East 5.8 mph - N/A   Clear
8:35 AM 48.2 °F - 24.8 °F 40% 29.91 in 10.0 mi East 8.1 mph - N/A   Clear
8:55 AM 48.2 °F - 24.8 °F 40% 29.90 in 10.0 mi East 10.4 mph 18.4 mph N/A   Clear
9:15 AM 48.2 °F - 26.6 °F 43% 29.90 in 10.0 mi East 11.5 mph - N/A   Clear
9:35 AM 50.0 °F - 26.6 °F 40% 29.88 in 10.0 mi ESE 10.4 mph - N/A   Clear
9:55 AM 51.8 °F - 26.6 °F 38% 29.88 in 10.0 mi ESE 6.9 mph - N/A   Clear
10:15 AM 53.6 °F - 23.0 °F 30% 29.88 in 10.0 mi ESE 8.1 mph - N/A   Mostly Cloudy
10:35 AM 55.4 °F - 23.0 °F 29% 29.86 in 10.0 mi ESE 9.2 mph - N/A   Scattered Clouds
10:55 AM 57.2 °F - 21.2 °F 25% 29.86 in 10.0 mi ESE 9.2 mph - N/A   Clear
11:15 AM 59.0 °F - 21.2 °F 23% 29.85 in 10.0 mi ESE 12.7 mph - N/A   Clear
11:35 AM 59.0 °F - 21.2 °F 23% 29.83 in 10.0 mi ESE 16.1 mph - N/A   Scattered Clouds
11:55 AM 59.0 °F - 24.8 °F 27% 29.82 in 10.0 mi ESE 12.7 mph - N/A   Mostly Cloudy
12:15 PM 59.0 °F - 28.4 °F 31% 29.81 in 10.0 mi SE 15.0 mph - N/A   Overcast
12:35 PM 59.0 °F - 35.6 °F 42% 29.77 in 10.0 mi SE 15.0 mph - N/A   Overcast
12:55 PM 59.0 °F - 39.2 °F 48% 29.75 in 10.0 mi SE 15.0 mph - N/A   Mostly Cloudy
1:15 PM 59.0 °F - 37.4 °F 45% 29.73 in 10.0 mi SSE 11.5 mph - N/A   Mostly Cloudy
1:35 PM 60.8 °F - 42.8 °F 52% 29.71 in 10.0 mi SSE 15.0 mph - N/A   Overcast
1:55 PM 60.8 °F - 44.6 °F 55% 29.70 in 10.0 mi SSE 13.8 mph - N/A   Scattered Clouds
2:15 PM 60.8 °F - 44.6 °F 55% 29.68 in 10.0 mi SSE 15.0 mph - N/A   Clear
2:35 PM 62.6 °F - 42.8 °F 48% 29.67 in 10.0 mi SSE 13.8 mph 21.9 mph N/A   Clear
2:55 PM 64.4 °F - 42.8 °F 45% 29.66 in 10.0 mi South 15.0 mph - N/A   Clear
3:15 PM 62.6 °F - 44.6 °F 52% 29.66 in 10.0 mi SSW 16.1 mph - N/A   Clear
3:35 PM 62.6 °F - 46.4 °F 55% 29.66 in 10.0 mi SSW 15.0 mph - N/A   Mostly Cloudy
3:55 PM 64.4 °F - 48.2 °F 56% 29.64 in 7.0 mi SSW 13.8 mph - N/A   Mostly Cloudy
4:15 PM 62.6 °F - 48.2 °F 59% 29.63 in 7.0 mi SSW 13.8 mph - N/A   Clear
4:35 PM 62.6 °F - 48.2 °F 59% 29.63 in 7.0 mi SSW 13.8 mph - N/A   Clear
4:55 PM 62.6 °F - 46.4 °F 55% 29.63 in 10.0 mi SW 12.7 mph - N/A   Clear
5:15 PM 60.8 °F - 46.4 °F 59% 29.62 in 10.0 mi SSW 12.7 mph - N/A   Clear
5:35 PM 60.8 °F - 44.6 °F 55% 29.62 in 10.0 mi SSW 15.0 mph 19.6 mph N/A   Clear
5:55 PM 59.0 °F - 42.8 °F 55% 29.61 in 10.0 mi South 9.2 mph - N/A   Clear
6:15 PM 57.2 °F - 41.0 °F 55% 29.60 in 10.0 mi SSW 8.1 mph - N/A   Clear
6:35 PM 55.4 °F - 41.0 °F 58% 29.60 in 10.0 mi South 6.9 mph - N/A   Clear
6:55 PM 55.4 °F - 41.0 °F 58% 29.60 in 10.0 mi South 3.5 mph - N/A   Clear
7:15 PM 55.4 °F - 42.8 °F 63% 29.60 in 10.0 mi Calm Calm - N/A   Clear
7:35 PM 55.4 °F - 42.8 °F 63% 29.58 in 10.0 mi Calm Calm - N/A   Clear
7:55 PM 55.4 °F - 42.8 °F 63% 29.58 in 10.0 mi SSE 3.5 mph - N/A   Clear
8:15 PM 51.8 °F - 41.0 °F 67% 29.57 in 10.0 mi SE 5.8 mph - N/A   Clear
8:35 PM 51.8 °F - 41.0 °F 67% 29.57 in 10.0 mi SE 5.8 mph - N/A   Clear
8:55 PM 50.0 °F - 41.0 °F 71% 29.56 in 10.0 mi SE 6.9 mph - N/A   Clear
9:15 PM 50.0 °F - 42.8 °F 76% 29.55 in 10.0 mi SE 9.2 mph - N/A   Clear
9:35 PM 53.6 °F - 50.0 °F 88% 29.54 in 7.0 mi SE 10.4 mph - N/A   Clear
9:55 PM 55.4 °F - 51.8 °F 88% 29.53 in 5.0 mi SSE 13.8 mph - N/A   Clear
10:35 PM 55.4 °F - 53.6 °F 94% 29.51 in 5.0 mi SSE 13.8 mph - N/A   Clear
10:55 PM 55.4 °F - 53.6 °F 94% 29.51 in 5.0 mi SSE 12.7 mph - N/A   Clear
11:15 PM 57.2 °F - 53.6 °F 88% 29.50 in 7.0 mi SSE 13.8 mph - N/A   Clear
11:35 PM 55.4 °F - 53.6 °F 94% 29.49 in 5.0 mi SSE 13.8 mph - N/A   Clear
11:55 PM 55.4 °F - 53.6 °F 94% 29.48 in 5.0 mi SSE 16.1 mph - N/A   Clear